Regional Weather Roundup
Issued by NWS Upton, NY

Current Version | Previous Version | Graphics & Text | Print | Product List | Glossary Off
Versions: 1 2 3 4 5 6 7 8 9 10 11 12 13 14 15 16 17 18 19 20 21 22 23 24 25 26 27

000
ASUS41 KOKX 231809
RWROKX

REGIONAL WEATHER ROUNDUP
NATIONAL WEATHER SERVICE NEW YORK NY
200 PM EDT FRI JUN 23 2017

NOTE: "FAIR" INDICATES FEW OR NO CLOUDS BELOW 12,000 FEET WITH NO
SIGNIFICANT WEATHER AND/OR OBSTRUCTIONS TO VISIBILITY.

NYZ071-072-176-178-NJZ106-104-231900-
NEW YORK CITY METRO AREA

CITY           SKY/WX    TMP DP  RH WIND       PRES   REMARKS
Central Park   LGT RAIN  76  72  87 VRB3G21   29.74F
Bronx Bot Gard   N/A     77  70  78 SW2       29.73F
LaGuardia APRT CLOUDY    81  72  74 SW18G30   29.70F
Kennedy INTL   CLOUDY    76  71  85 S16       29.73F
Breezy Point     N/A     75 N/A N/A SW12G18     N/A
Newark/Liberty CLOUDY    79  70  74 SW18G24   29.71F
Teterboro      LGT RAIN  79  71  76 SW16      29.70F
$$

NYZ177-179-078>081-231900-
LONG ISLAND NEW YORK

CITY           SKY/WX    TMP DP  RH WIND       PRES   REMARKS
Jones Beach      N/A     72 N/A N/A SW9G15      N/A
Matinecock PT  NOT AVBL
Farmingdale    NOT AVBL
MacArthur/ISP  CLOUDY    80  71  74 SW17G30   29.73F
Shirley        PTSUNNY   78  72  81 SW13G23   29.74F
Mt Sinai Harb    N/A     81 N/A N/A S10         N/A
Westhampton    MOSUNNY   77  69  76 SW15G23   29.76F
East Hampton   PTSUNNY   76  69  78 SW12G21   29.75F
Montauk          N/A     73  69  87 SW9G18    29.76F
$$

NYZ052-065-067-231900-
HUDSON VALLEY

CITY           SKY/WX    TMP DP  RH WIND       PRES   REMARKS
White Plains   NOT AVBL
Larchmont Harb   N/A     75 N/A N/A S15         N/A
Croton O-T Hud   N/A     79 N/A N/A S12G21      N/A
Newburgh       PTSUNNY   79  73  83 W10       29.71F
Montgomery     CLOUDY    80  70  71 SW13G20   29.68F
Poughkeepsie   CLOUDY    83  68  60 S8        29.66F
Albany         PTSUNNY   86  67  52 S14G23    29.61F
$$

NJZ001-105-106-008-010-013-015-019>022-104-231900-
NEW JERSEY

CITY           SKY/WX    TMP DP  RH WIND       PRES   REMARKS
Newark/Liberty CLOUDY    79  70  74 SW18G24   29.71F
Teterboro      LGT RAIN  79  71  76 SW16      29.70F
Caldwell       LGT RAIN  77  72  84 SW8       29.71F
Somerville     CLOUDY    78  73  84 S7        29.70F
Linden         CLOUDY    79  69  71 W10G16    29.72F
Perth Amboy      N/A     77 N/A N/A SW17G23     N/A
Sussex         CLOUDY    75  71  87 S7        29.71F
Andover          N/A     74  71  91 S7        29.72F
Trenton        CLOUDY    80  72  76 SW13G20   29.72F
Millville      PTSUNNY   83  76  79 SW13G21   29.77F HX  91
Atlantic City  CLOUDY    83  73  72 SW12G26   29.76F
Wrightstown    PTSUNNY   82  73  75 SW15      29.71F
Toms River     CLOUDY    82  73  74 SW16G23   29.75F
Belmar         CLOUDY    80  71  74 SW14G20   29.75F
$$

PAZ047>061-062-071-231900-
EASTERN PENNSYLVANIA

CITY           SKY/WX    TMP DP  RH WIND       PRES   REMARKS
Philadelphia   PTSUNNY   84  72  67 SW15G24   29.74F
Allentown      CLOUDY    80  71  74 W10       29.71F
Scranton       CLOUDY    77  70  79 SW8       29.70F
$$

CTZ002-004>006-009-010-012-RIZ004-006-007-MAZ004-011-015-231900-
SOUTHERN NEW ENGLAND
 IN CT

CITY           SKY/WX    TMP DP  RH WIND       PRES   REMARKS
Bradley INTL   PTSUNNY   89  67  47 S16       29.67F HX  92
Hartford       MOSUNNY   87  70  56 S15G25    29.68F HX  92
Danbury        MOSUNNY   84  71  65 S9G21     29.71F
Wtrbury/Oxford PTSUNNY   82  70  65 S15G215   29.74F
Bridgeport     CLOUDY    84  71  65 S14       29.70F
Meriden        PTSUNNY   82  72  71 S15       29.70F
New Haven      NOT AVBL
Chester        FAIR      79  72  78 S12G18    29.74F
Groton           N/A    N/A N/A N/A MISG      29.73F
Wilimantic     PTSUNNY   87  67  51 S15       29.71F HX  90

 IN RI

CITY           SKY/WX    TMP DP  RH WIND       PRES   REMARKS
Providence     PTSUNNY   84  71  65 S21       29.73F
Block Island   CLOUDY    73  68  84 S16G22    29.77F
Westerly       CLOUDY    77  69  76 SW13G20   29.76F
 IN MA

CITY           SKY/WX    TMP DP  RH WIND       PRES   REMARKS
Boston         CLOUDY    88  71  57 S17G25    29.68F HX  94
Worcester      MOSUNNY   80  68  66 S12       29.72F
Westfield      NOT AVBL
Provincetown   CLOUDY    78  69  73 S16       29.75F
Nantucket      CLOUDY    69  66  90 S14       29.80F
$$

ANZ330-335-338-340-345-350-353-355-231900-
COASTAL MARINE OBSERVATIONS


STATION/POSITION TIME  SKY/WX   TEMP    WIND        PRES    VSBY  WAVE
                                AIR SEA DIR/SP/G                  HT/PER
                 (UTC)          (F)     (DEG/KT/KT) (MB)    (MI)  (FT/S)
NY HARB ENTRANCE 1650            70 67  190/ 16/ 17 1007.5          2/ 4
20 S FIRE ISLAND 1750            71 69  210/ 17/ 21 1007.0          4/ 5
GREAT SOUTH BAY  1730            73 76  220/ 14/ 17   N/A
23 SSW MONTAUK P 1650            68 64              1009.0          3/ 8
15 E BARNEGAT LI 1730               65                N/A           4/ 4
HUDSON CANYON    1650            71 67  230/ 14/ 16 1010.4          3/ 8
KINGS POINT      1736            79 66  240/ 15/ 18 1005.7
EXECUTION ROCKS  1745            74     190/ 10/ 12   N/A
CENTRAL LI SOUND 1730            73     180/ 12/ 14   N/A           1
EASTERN LI SOUND NOT AVBL
ROBBINS REEF     1736                   210/ 15/ 21 1006.8
$$


>>>>>>>>>>>>>>>>>>>>>>>>>>>> KEY <<<<<<<<<<<<<<<<<<<<<<<<<<<
>                                                          <
>     SKY/WX - Sky Condition/Present Weather               <
>     TMP    - Temperature in Fahrenheit                   <
>     DP     - Dew Point in Fahrenheit                     <
>     RH     - Relative Humidity in Percent                <
>     WIND   - Direction (from) and Speed in MPH           <
>     PRES   - Mean Sea Level Pressure (inches of Hg)      <
>     WCI    - Wind Chill Index                            <
>     VSB    - VISIBILITY IN MILES                         <
>     HX     - HEAT INDEX                                  <
>     TC     - TEMPERATURE IN CELSIUS                      <
>     VRB    - VARIABLE WIND DIRECTION                     <
>                                                          <
>>>>>>>>>>>>>>>>>>>>>>>>>>>> KEY <<<<<<<<<<<<<<<<<<<<<<<<<<<




USA.gov is the U.S. government's official web portal to all federal, state and local government web resources and services.